TIME,DELAY(SENSOR),PRES,OXYGEN,RAWTEMP,T(OPTODE),TCPHASE,FLUOR,BETA(BETA700),BETA(BETA412),BETA(BETA440),CDOM,C(CSC),ED(ED411.90),ED(ED443.80),ED(ED489.40),ED(ED554.70),LU(LU412.20),LU(LU443.80),LU(LU489.40),LU(LU555.00),COMP,TILTX,TILTY,CHECK
1343515386,5801,894.7399902343750000,173.6949005126953000,459.9057006835937500,9.1300754547119140,39.5142784118652340,51,106,102,82,75,15376,2147450523,2147792768,2147579318,2147823478,2147307757,2147456155,2147754102,2148271606,3391,6,14,64045
1343518982,5803,9.8999996185302730,211.2234039306640600,523.8596191406250000,7.1312918663024900,38.2132110595703100,51,107,104,83,76,15374,2147440237,2147796233,2147584832,2147832301,2147305901,2147446912,2147761490,2148277586,518,6,14,4677
1343522582,5806,11.3000001907348630,219.5726928710937500,533.9492187500000000,6.8133950233459470,37.9161109924316400,50,104,102,82,76,15373,2147435922,2147796288,2147583670,2147837760,2147304420,2147445229,2147765083,2148282806,132,6,14,20874
1343526182,5805,11.6000003814697270,220.9960937500000000,535.4896240234375000,6.7647972106933590,37.8644485473632800,52,105,102,83,76,15342,2147430784,2147797933,2147586825,2147838107,2147303945,2147450066,2147766811,2148279204,3026,6,14,14085
1343529782,5805,1015.0000000000000000,223.2658996582031200,536.7789916992188000,6.7241001129150390,37.7618598937988300,52,103,102,82,75,15344,2147435090,2147798189,2147586944,2147833124,2147306880,2147445257,2147763840,2148280539,509,6,14,49117
1343533382,5804,1085.0000000000000000,223.8795928955078000,536.8350219726562000,6.7223320007324220,37.7291908264160160,51,103,102,83,77,15339,2147433782,2147800228,2147582272,2147832475,2147304877,2147449371,2147765293,2148278921,3493,6,15,24277
1343536982,5806,1310.0000000000000000,224.1121978759765600,537.5134277343750000,6.7009139060974120,37.7281417846679700,51,102,103,83,76,15339,2147434715,2147795913,2147585225,2147834614,2147306358,2147447286,2147762898,2148278710,612,6,14,44515
1343540582,5805,13.0000000000000000,224.6546020507812500,537.6663818359375000,6.6960849761962890,37.7016716003418000,52,104,103,81,76,15339,2147436004,2147799040,2147586249,2147834194,2147310976,2147446290,2147764288,2148281069,3326,6,14,38290
1343544182,5804,1011.0000000000000000,226.5894012451172000,538.7722778320312000,6.6611628532409670,37.6154899597168000,51,107,103,82,75,15337,2147431808,2147801033,2147586898,2147833929,2147307693,2147445952,2147765613,2148280448,165,6,14,11069
1343547782,5805,1048.0000000000000000,222.3336944580078000,535.8477172851562000,6.7534937858581540,37.7961006164550800,51,102,103,83,76,15335,2147430125,2147796909,2147586541,2147833892,2147307227,2147448493,2147768768,2148279515,457,6,14,15154
1343551382,5805,12.6000003814697270,221.3854980468750000,535.8071899414062000,6.7547740936279300,37.8477516174316400,51,104,101,82,75,15338,2147434057,2147799570,2147586724,2147833289,2147306176,2147450614,2147767451,2148279972,418,6,14,61203
1343554982,5803,12.8000001907348630,223.1289978027343800,536.2457275390625000,6.7409319877624510,37.7594795227050800,50,103,102,81,76,15336,2147431981,2147800338,2147583753,2147832228,2147303936,2147447808,2147764818,2148278546,3401,6,14,5196
1343558582,5801,1004.0000000000000000,222.2288055419922000,536.4359741210938000,6.7349262237548830,37.8123588562011700,51,105,103,82,75,15338,2147431040,2147797138,2147584566,2147834285,2147300928,2147451090,2147767204,2148275830,3031,6,14,6470
1343562182,5805,12.0000000000000000,222.6717987060547000,536.7406005859375000,6.7253131866455080,37.7934608459472660,51,106,103,83,75,15334,2147432841,2147796864,2147588470,2147832667,2147304923,2147446637,2147767954,2148279286,3228,6,14,27240
1343565782,5806,1029.0000000000000000,226.1790008544922000,538.4907226562500000,6.6700549125671390,37.6326599121093750,52,106,102,83,77,15320,2147431094,2147799753,2147587017,2147836580,2147306422,2147448228,2147769444,2148278482,644,6,14,9572
1343569382,5805,10.5000000000000000,226.3276062011718800,538.7097778320312000,6.6631360054016110,37.6287994384765600,51,106,102,82,76,15319,2147432374,2147795986,2147585590,2147833984,2147306075,2147450889,2147766985,2148281718,811,6,14,45738
1343572982,5806,12.0000000000000000,227.1239013671875000,538.7003173828125000,6.6634368896484375,37.5852699279785160,51,105,101,82,76,15323,2147436480,2147795291,2147585536,2147833206,2147304768,2147448466,2147766985,2148278436,3450,6,15,51410
1343576582,5804,1062.0000000000000000,223.9559020996093800,537.6245727539062000,6.6974067687988280,37.7383995056152340,51,106,102,83,76,15321,2147432804,2147798747,2147585965,2147834432,2147305435,2147449709,2147768932,2148277613,780,6,14,53504
1343580182,5805,12.0000000000000000,224.3522033691406200,538.6286010742188000,6.6657028198242190,37.7348213195800800,52,105,103,83,76,15317,2147434386,2147797339,2147582976,2147834733,2147305270,2147452644,2147767542,2148279808,132,6,14,17807
1343583782,5804,12.3999996185302730,227.2480926513672000,539.3018188476562000,6.6444401741027830,37.5896797180175800,52,107,102,82,76,15317,2147438820,2147795264,2147585865,2147834678,2147306806,2147454528,2147761984,2148279049,3306,6,14,17512
1343587382,5806,1233.0000000000000000,228.1161041259765600,540.0551757812500000,6.6206398010253910,37.5560417175293000,51,105,101,82,76,15305,2147432832,2147801664,2147586212,2147833042,2147306578,2147451684,2147765970,2148276635,239,6,14,55983
1343590982,5803,174.0000000000000000,226.8148956298828000,539.1116943359375000,6.6504440307617190,37.6092491149902340,51,105,101,82,76,15302,2147431396,2147799049,2147588169,2147836251,2147306651,2147446829,2147765778,2148278573,3576,6,15,52774
1343594582,5804,102.0000000000000000,226.6768951416015600,539.2543945312500000,6.6459369659423830,37.6192588806152340,51,105,102,82,76,15292,2147431990,2147796480,2147585408,2147833344,2147306669,2147448667,2147769060,2148278555,3417,6,14,34752
1343598182,5803,12.6999998092651370,226.7304992675781200,539.1220703125000000,6.6501159667968750,37.6145896911621100,52,107,103,82,75,15291,2147436662,2147795035,2147584402,2147834806,2147306404,2147441673,2147768841,2148278729,130,6,14,6854
1343601782,5804,12.1999998092651370,225.3130035400390600,538.5302124023438000,6.6688098907470700,37.6810989379882800,51,105,102,82,76,15289,2147436562,2147797092,2147585892,2147832804,2147305792,2147447296,2147766061,2148278866,2956,6,14,33245
1343605382,5803,10.6000003814697270,223.5794067382812500,537.7672729492188000,6.6929001808166500,37.7623481750488300,50,103,103,82,76,15291,2147435931,2147798244,2147587282,2147833572,2147307291,2147446043,2147766966,2148281005,117,6,14,43251
1343608982,5803,13.0000000000000000,226.0249023437500000,538.4804077148438000,6.6703820228576660,37.6413307189941400,51,104,101,83,76,15288,2147434057,2147800768,2147585408,2147831570,2147304237,2147446966,2147765613,2148282432,3496,6,14,41185
1343612582,5806,1345.0000000000000000,224.2722930908203000,537.5197143554688000,6.7007179260253910,37.7193183898925800,50,103,102,82,76,15290,2147433133,2147796571,2147585398,2147832850,2147305152,2147446354,2147764854,2148284086,41,6,14,44237
1343616182,5803,1001.0000000000000000,218.3957977294922000,530.8486938476562000,6.9111652374267580,37.9269714355468750,51,108,103,84,77,15298,2147434806,2147798756,2147585206,2147833179,2147305462,2147444480,2147761691,2148278774,288,6,14,36777
1343619782,5804,10.0000000000000000,218.4799041748047000,531.8054199218750000,6.8810057640075680,37.9393310546875000,51,106,102,82,77,15298,2147430025,2147797312,2147587547,2147834715,2147305033,2147444379,2147764854,2148280740,3038,6,14,15868
1343623382,5804,10.1999998092651370,217.9450073242187500,532.1132812500000000,6.8712978363037110,37.9752616882324200,51,109,102,82,76,15296,2147432548,2147797220,2147582043,2147835538,2147304256,2147449426,2147762441,2148278957,3481,6,14,12095
1343626982,5806,10.5000000000000000,218.0092010498047000,531.6170043945312000,6.8869462013244630,37.9624290466308600,51,103,102,82,76,15293,2147432886,2147797513,2147586048,2147832457,2147305261,2147450203,2147764324,2148280429,203,6,14,9082
1343630582,5802,10.6999998092651370,217.8506927490234400,532.4946289062500000,6.8592720031738280,37.9873580932617200,51,106,101,82,76,15290,2147437174,2147797174,2147583222,2147834404,2147306075,2147447433,2147764699,2148281426,93,6,14,44334
1343634182,5803,10.3000001907348630,218.2120971679687500,533.0435791015625000,6.8419589996337890,37.9763908386230500,51,106,104,84,74,15292,2147432512,2147799113,2147585069,2147835236,2147304137,2147448658,2147765641,2148280859,492,6,14,14801
1343637782,5804,108.0000000000000000,218.2342987060547000,533.7147827148438000,6.8207907676696780,37.9867897033691400,50,105,103,82,76,15237,2147436324,2147795035,2147585728,2147833142,2147304466,2147449444,2147767460,2148279963,632,6,14,65042
1343641382,5805,10.3000001907348630,218.5334014892578000,532.9218750000000000,6.8457999229431150,37.9562110900878900,50,103,101,81,76,15216,2147434084,2147797046,2147582052,2147834249,2147306651,2147448045,2147763483,2148278848,110,6,14,33551
1343644982,5805,1020.0000000000000000,217.2117004394531200,533.8986816406250000,6.8149909973144530,38.0484809875488300,50,105,102,82,76,15221,2147430363,2147798354,2147584978,2147832987,2147307492,2147449380,2147763236,2148280886,145,6,14,32619
1343648582,5803,47.0000000000000000,217.5469970703125000,533.5905761718750000,6.8247070312500000,38.0234298706054700,51,106,101,83,76,15232,2147434413,2147798829,2147584941,2147831259,2147306029,2147446528,2147766820,2148277787,3565,6,14,22153
1343652182,5803,1066.0000000000000000,218.5263061523437500,531.4868164062500000,6.8910498619079590,37.9310607910156250,52,105,103,81,76,15222,2147433920,2147796525,2147583780,2147832777,2147305344,2147448978,2147762230,2148283382,220,6,14,18904
1343655782,5807,109.0000000000000000,216.6215972900390600,533.1685180664062000,6.8380222320556640,38.0688209533691400,51,103,104,82,75,15222,2147436105,2147797522,2147581942,2147831542,2147308370,2147447232,2147767817,2148281088,24,6,14,2765
1343656256,5804,11.1999998092651370,216.0910034179687500,533.0858764648438000,6.8406238555908200,38.0969581604003900,51,107,102,83,75,15220,2147435986,2147801462,2147584118,2147834276,2147308013,2147447369,2147768457,2148280832,141,6,15,35350
